| time (UTC) | temp F | wind direction | speed MPH | gust MPH | rain 1hr in | rain 24hr in | rain mn in | humidity % | barometer mb |
| 20260905011138 | 85 | 88 | 0.0 | 0.0 | 0.00 | 0.00 | 0.00 | 66 | 1013.7 |
| 20260905010636 | 85 | 88 | 0.0 | 1.0 | 0.00 | 0.00 | 0.00 | 66 | 1013.7 |
| 20260905010138 | 85 | 88 | 1.0 | 3.0 | 0.00 | 0.00 | 0.00 | 65 | 1013.7 |
| 20260905005906 | 85 | 88 | 1.0 | 3.0 | 0.00 | 0.00 | 0.00 | 65 | 1013.7 |
| 20260905005134 | 85 | 88 | 1.0 | 3.0 | 0.00 | 0.00 | 0.00 | 65 | 1013.7 |
| 20260905004906 | 85 | 88 | 0.0 | 3.0 | 0.00 | 0.00 | 0.00 | 65 | 1013.7 |
| 20260905004132 | 85 | 88 | 0.0 | 2.0 | 0.00 | 0.00 | 0.00 | 65 | 1013.6 |
| 20260905003632 | 86 | 88 | 1.0 | 2.0 | 0.00 | 0.00 | 0.00 | 65 | 1013.7 |
| 20260905003132 | 86 | 88 | 1.0 | 2.0 | 0.00 | 0.00 | 0.00 | 65 | 1013.7 |
| 20260905002632 | 86 | 88 | 1.0 | 3.0 | 0.00 | 0.00 | 0.00 | 65 | 1013.6 |
| 20260905002132 | 86 | 88 | 1.0 | 5.0 | 0.00 | 0.00 | 0.00 | 65 | 1013.6 |
| 20260905001132 | 86 | 87 | 1.0 | 5.0 | 0.00 | 0.00 | 0.00 | 64 | 1013.6 |
| 20260905000632 | 87 | 80 | 1.0 | 5.0 | 0.00 | 0.00 | 0.00 | 64 | 1013.5 |
| 20260905000132 | 87 | 74 | 1.0 | 4.0 | 0.00 | 0.00 | 0.00 | 64 | 1013.5 |
| 20260904235632 | 87 | 122 | 2.0 | 7.0 | 0.00 | 0.00 | 0.00 | 64 | 1013.3 |
| 20260904235132 | 87 | 121 | 2.0 | 7.0 | 0.00 | 0.00 | 0.00 | 64 | 1013.3 |
| 20260904234631 | 87 | 107 | 1.0 | 3.0 | 0.00 | 0.00 | 0.00 | 64 | 1013.2 |
| 20260904234132 | 86 | 94 | 1.0 | 3.0 | 0.00 | 0.00 | 0.00 | 64 | 1013.2 |
| 20260904233902 | 86 | 94 | 1.0 | 3.0 | 0.00 | 0.00 | 0.00 | 63 | 1013.2 |
| 20260904233130 | 86 | 94 | 1.0 | 3.0 | 0.00 | 0.00 | 0.00 | 63 | 1013.2 |
| 20260904232623 | 86 | 94 | 1.0 | 4.0 | 0.00 | 0.00 | 0.00 | 63 | 1013.3 |
| 20260904232117 | 87 | 93 | 2.0 | 4.0 | 0.00 | 0.00 | 0.00 | 64 | 1013.2 |
| 20260904231841 | 87 | 93 | 1.0 | 4.0 | 0.00 | 0.00 | 0.00 | 63 | 1013.2 |
| 20260904231105 | 87 | 102 | 1.0 | 4.0 | 0.00 | 0.00 | 0.00 | 63 | 1013.2 |
| 20260904230559 | 87 | 101 | 1.0 | 3.0 | 0.00 | 0.00 | 0.00 | 64 | 1013.2 |
| 20260904230053 | 87 | 101 | 2.0 | 5.0 | 0.00 | 0.00 | 0.00 | 63 | 1013.2 |
| 20260904225547 | 87 | 102 | 2.0 | 5.0 | 0.00 | 0.00 | 0.00 | 63 | 1013.3 |
| 20260904225041 | 87 | 112 | 1.0 | 5.0 | 0.00 | 0.00 | 0.00 | 63 | 1013.4 |
| 20260904224535 | 87 | 138 | 1.0 | 5.0 | 0.00 | 0.00 | 0.00 | 65 | 1013.4 |
| 20260904224027 | 87 | 85 | 1.0 | 4.0 | 0.00 | 0.00 | 0.00 | 67 | 1013.5 |
| 20260904223521 | 86 | 86 | 2.0 | 7.0 | 0.00 | 0.00 | 0.00 | 67 | 1013.5 |
| 20260904223246 | 87 | 76 | 2.0 | 7.0 | 0.00 | 0.00 | 0.00 | 68 | 1013.7 |
| 20260904222739 | 87 | 88 | 2.0 | 5.0 | 0.00 | 0.00 | 0.00 | 68 | 1013.7 |
| 20260904222002 | 87 | 85 | 2.0 | 4.0 | 0.00 | 0.00 | 0.00 | 70 | 1013.7 |
| 20260904221457 | 87 | 108 | 2.0 | 6.0 | 0.00 | 0.00 | 0.00 | 70 | 1013.8 |
| 20260904220951 | 87 | 103 | 3.0 | 8.0 | 0.00 | 0.00 | 0.00 | 70 | 1013.8 |
| 20260904220444 | 87 | 90 | 2.0 | 8.0 | 0.00 | 0.00 | 0.00 | 70 | 1013.9 |
| 20260904215939 | 86 | 94 | 2.0 | 8.0 | 0.00 | 0.00 | 0.00 | 70 | 1013.9 |
| 20260904215433 | 86 | 127 | 2.0 | 7.0 | 0.00 | 0.00 | 0.00 | 71 | 1013.9 |
| 20260904214925 | 86 | 115 | 2.0 | 7.0 | 0.00 | 0.00 | 0.00 | 71 | 1014.0 |
| 20260904214419 | 86 | 128 | 2.0 | 6.0 | 0.00 | 0.00 | 0.00 | 71 | 1014.1 |
| 20260904214145 | 86 | 86 | 2.0 | 4.0 | 0.00 | 0.00 | 0.00 | 72 | 1014.2 |
| 20260904213407 | 86 | 98 | 2.0 | 5.0 | 0.00 | 0.00 | 0.00 | 72 | 1014.2 |
| 20260904212901 | 86 | 67 | 2.0 | 6.0 | 0.00 | 0.00 | 0.00 | 73 | 1014.2 |
| 20260904212400 | 86 | 89 | 2.0 | 7.0 | 0.00 | 0.00 | 0.00 | 73 | 1014.3 |
| 20260904211849 | 86 | 117 | 2.0 | 7.0 | 0.00 | 0.00 | 0.00 | 73 | 1014.4 |
| 20260904210837 | 86 | 113 | 1.0 | 6.0 | 0.00 | 0.00 | 0.00 | 71 | 1014.4 |
| 20260904210330 | 86 | 115 | 1.0 | 6.0 | 0.00 | 0.00 | 0.00 | 71 | 1014.5 |
| 20260904205825 | 86 | 113 | 1.0 | 6.0 | 0.00 | 0.00 | 0.00 | 71 | 1014.6 |
| 20260904205319 | 86 | 113 | 1.0 | 6.0 | 0.00 | 0.00 | 0.00 | 71 | 1014.5 |
| 20260904204813 | 86 | 117 | 1.0 | 5.0 | 0.00 | 0.00 | 0.00 | 71 | 1014.6 |
| 20260904204307 | 86 | 119 | 2.0 | 5.0 | 0.00 | 0.00 | 0.00 | 71 | 1014.7 |
| 20260904203801 | 86 | 116 | 2.0 | 5.0 | 0.00 | 0.00 | 0.00 | 70 | 1014.7 |
| 20260904203255 | 86 | 128 | 2.0 | 8.0 | 0.00 | 0.00 | 0.00 | 70 | 1014.8 |
| 20260904202749 | 86 | 120 | 2.0 | 8.0 | 0.00 | 0.00 | 0.00 | 69 | 1014.9 |
| 20260904202243 | 87 | 89 | 2.0 | 7.0 | 0.00 | 0.00 | 0.00 | 69 | 1014.9 |
| 20260904201737 | 87 | 127 | 2.0 | 8.0 | 0.00 | 0.00 | 0.00 | 69 | 1014.9 |
| 20260904201230 | 87 | 93 | 2.0 | 8.0 | 0.00 | 0.00 | 0.00 | 69 | 1014.9 |
| 20260904200725 | 87 | 72 | 2.0 | 8.0 | 0.00 | 0.00 | 0.00 | 68 | 1014.9 |
| 20260904200451 | 87 | 119 | 2.0 | 8.0 | 0.00 | 0.00 | 0.00 | 68 | 1015.0 |
| 20260904195713 | 87 | 142 | 2.0 | 8.0 | 0.00 | 0.00 | 0.00 | 67 | 1014.9 |
| 20260904195207 | 87 | 100 | 1.0 | 8.0 | 0.00 | 0.00 | 0.00 | 68 | 1015.0 |
| 20260904194701 | 87 | 119 | 2.0 | 7.0 | 0.00 | 0.00 | 0.00 | 67 | 1015.0 |
| 20260904194425 | 87 | 119 | 2.0 | 7.0 | 0.00 | 0.00 | 0.00 | 67 | 1015.0 |
| 20260904193920 | 87 | 148 | 2.0 | 6.0 | 0.00 | 0.00 | 0.00 | 67 | 1015.2 |
| 20260904193143 | 87 | 136 | 2.0 | 6.0 | 0.00 | 0.00 | 0.00 | 66 | 1015.2 |
| 20260904192638 | 87 | 30 | 2.0 | 6.0 | 0.00 | 0.00 | 0.00 | 67 | 1015.3 |
| 20260904192130 | 87 | 177 | 2.0 | 7.0 | 0.00 | 0.00 | 0.00 | 66 | 1015.3 |
| 20260904191624 | 88 | 207 | 1.0 | 7.0 | 0.00 | 0.00 | 0.00 | 66 | 1015.3 |
| 20260904191118 | 88 | 93 | 2.0 | 5.0 | 0.00 | 0.00 | 0.00 | 67 | 1015.4 |
| 20260904190613 | 88 | 132 | 1.0 | 5.0 | 0.00 | 0.00 | 0.00 | 67 | 1015.4 |
| 20260904190107 | 87 | 165 | 1.0 | 6.0 | 0.00 | 0.00 | 0.00 | 68 | 1015.4 |
| 20260904185601 | 87 | 168 | 2.0 | 8.0 | 0.00 | 0.00 | 0.00 | 66 | 1015.4 |
| 20260904185055 | 87 | 116 | 2.0 | 7.0 | 0.00 | 0.00 | 0.00 | 66 | 1015.5 |
| 20260904184549 | 88 | 121 | 2.0 | 8.0 | 0.00 | 0.00 | 0.00 | 67 | 1015.5 |
| 20260904184043 | 88 | 150 | 2.0 | 8.0 | 0.00 | 0.00 | 0.00 | 66 | 1015.6 |
| 20260904183537 | 88 | 155 | 2.0 | 8.0 | 0.00 | 0.00 | 0.00 | 67 | 1015.6 |
| 20260904183030 | 88 | 169 | 2.0 | 8.0 | 0.00 | 0.00 | 0.00 | 67 | 1015.6 |
| 20260904182757 | 88 | 115 | 3.0 | 7.0 | 0.00 | 0.00 | 0.00 | 67 | 1015.7 |
| 20260904182023 | 88 | 84 | 3.0 | 7.0 | 0.00 | 0.00 | 0.00 | 66 | 1015.7 |
| 20260904181755 | 88 | 197 | 3.0 | 11.0 | 0.00 | 0.00 | 0.00 | 66 | 1015.8 |
| 20260904181021 | 89 | 210 | 3.0 | 11.0 | 0.00 | 0.00 | 0.00 | 65 | 1015.9 |
| 20260904180521 | 89 | 131 | 3.0 | 9.0 | 0.00 | 0.00 | 0.00 | 64 | 1015.9 |
| 20260904180021 | 89 | 126 | 3.0 | 9.0 | 0.00 | 0.00 | 0.00 | 65 | 1015.9 |
| 20260904175521 | 89 | 143 | 3.0 | 9.0 | 0.00 | 0.00 | 0.00 | 66 | 1015.9 |
| 20260904175020 | 88 | 126 | 3.0 | 9.0 | 0.00 | 0.00 | 0.00 | 67 | 1015.9 |
| 20260904174520 | 88 | 157 | 3.0 | 8.0 | 0.00 | 0.00 | 0.00 | 66 | 1015.9 |
| 20260904174021 | 88 | 109 | 3.0 | 12.0 | 0.00 | 0.00 | 0.00 | 68 | 1016.0 |
| 20260904173521 | 88 | 163 | 3.0 | 12.0 | 0.00 | 0.00 | 0.00 | 67 | 1016.0 |
| 20260904173021 | 88 | 117 | 3.0 | 10.0 | 0.00 | 0.00 | 0.00 | 68 | 1016.1 |
| 20260904172521 | 88 | 163 | 3.0 | 10.0 | 0.00 | 0.00 | 0.00 | 66 | 1016.2 |
| 20260904172017 | 88 | 205 | 3.0 | 9.0 | 0.00 | 0.00 | 0.00 | 67 | 1016.3 |
| 20260904171517 | 88 | 115 | 2.0 | 9.0 | 0.00 | 0.00 | 0.00 | 67 | 1016.3 |
| 20260904171017 | 88 | 136 | 2.0 | 9.0 | 0.00 | 0.00 | 0.00 | 69 | 1016.4 |
| 20260904170017 | 87 | 167 | 2.0 | 7.0 | 0.00 | 0.00 | 0.00 | 70 | 1016.4 |
| 20260904165518 | 87 | 153 | 3.0 | 7.0 | 0.00 | 0.00 | 0.00 | 70 | 1016.5 |
| 20260904165018 | 86 | 72 | 3.0 | 9.0 | 0.00 | 0.00 | 0.00 | 71 | 1016.6 |
| 20260904164517 | 86 | 169 | 3.0 | 9.0 | 0.00 | 0.00 | 0.00 | 72 | 1016.6 |
| 20260904164018 | 86 | 128 | 3.0 | 9.0 | 0.00 | 0.00 | 0.00 | 71 | 1016.6 |
| 20260904163514 | 86 | 144 | 2.0 | 9.0 | 0.00 | 0.00 | 0.00 | 71 | 1016.6 |
| 20260904163012 | 87 | 124 | 2.0 | 5.0 | 0.00 | 0.00 | 0.00 | 70 | 1016.5 |
| 20260904162513 | 87 | 101 | 1.0 | 6.0 | 0.00 | 0.00 | 0.00 | 70 | 1016.6 |
| 20260904162014 | 87 | 146 | 2.0 | 8.0 | 0.00 | 0.00 | 0.00 | 72 | 1016.5 |
| 20260904161512 | 86 | 157 | 2.0 | 8.0 | 0.00 | 0.00 | 0.00 | 73 | 1016.5 |
| 20260904161243 | 85 | 153 | 2.0 | 9.0 | 0.00 | 0.00 | 0.00 | 74 | 1016.5 |
| 20260904160509 | 85 | 157 | 3.0 | 9.0 | 0.00 | 0.00 | 0.00 | 74 | 1016.5 |
| 20260904160009 | 85 | 94 | 3.0 | 11.0 | 0.00 | 0.00 | 0.00 | 75 | 1016.6 |
| 20260904155509 | 85 | 115 | 3.0 | 11.0 | 0.00 | 0.00 | 0.00 | 74 | 1016.6 |
| 20260904155242 | 85 | 171 | 3.0 | 7.0 | 0.00 | 0.00 | 0.00 | 74 | 1016.6 |
| 20260904154509 | 85 | 171 | 3.0 | 8.0 | 0.00 | 0.00 | 0.00 | 74 | 1016.6 |
| 20260904154007 | 85 | 119 | 3.0 | 10.0 | 0.00 | 0.00 | 0.00 | 76 | 1016.5 |
| 20260904153507 | 84 | 115 | 3.0 | 10.0 | 0.00 | 0.00 | 0.00 | 77 | 1016.4 |
| 20260904153007 | 84 | 71 | 2.0 | 7.0 | 0.00 | 0.00 | 0.00 | 78 | 1016.4 |
| 20260904152509 | 83 | 123 | 2.0 | 7.0 | 0.00 | 0.00 | 0.00 | 79 | 1016.3 |
| 20260904152002 | 82 | 126 | 2.0 | 10.0 | 0.00 | 0.00 | 0.00 | 80 | 1016.2 |
| 20260904151456 | 82 | 155 | 2.0 | 10.0 | 0.00 | 0.00 | 0.00 | 79 | 1016.2 |
| 20260904150950 | 83 | 149 | 1.0 | 8.0 | 0.00 | 0.00 | 0.00 | 80 | 1016.2 |
| 20260904150444 | 83 | 225 | 2.0 | 7.0 | 0.00 | 0.00 | 0.00 | 79 | 1016.2 |
| 20260904145939 | 83 | 91 | 1.0 | 7.0 | 0.00 | 0.00 | 0.00 | 79 | 1016.2 |
| 20260904145433 | 82 | 116 | 2.0 | 7.0 | 0.00 | 0.00 | 0.00 | 81 | 1016.2 |
| 20260904144927 | 82 | 138 | 2.0 | 10.0 | 0.00 | 0.00 | 0.00 | 81 | 1016.2 |
| 20260904144422 | 82 | 146 | 2.0 | 10.0 | 0.00 | 0.00 | 0.00 | 83 | 1016.3 |
| 20260904143915 | 81 | 132 | 2.0 | 7.0 | 0.00 | 0.00 | 0.00 | 84 | 1016.2 |
| 20260904143408 | 80 | 176 | 3.0 | 8.0 | 0.00 | 0.00 | 0.00 | 84 | 1016.2 |
| 20260904142902 | 80 | 169 | 3.0 | 8.0 | 0.00 | 0.00 | 0.00 | 84 | 1016.2 |
| 20260904142356 | 80 | 217 | 3.0 | 8.0 | 0.00 | 0.00 | 0.00 | 84 | 1016.2 |
| 20260904141850 | 80 | 165 | 2.0 | 7.0 | 0.00 | 0.00 | 0.00 | 85 | 1016.2 |
| 20260904141344 | 80 | 153 | 2.0 | 9.0 | 0.00 | 0.00 | 0.00 | 85 | 1016.0 |
| 20260904140838 | 80 | 205 | 2.0 | 9.0 | 0.00 | 0.00 | 0.00 | 86 | 1016.1 |
| 20260904140332 | 80 | 166 | 2.0 | 6.0 | 0.00 | 0.00 | 0.00 | 86 | 1016.1 |
| 20260904140059 | 79 | 182 | 1.0 | 6.0 | 0.00 | 0.00 | 0.00 | 86 | 1016.1 |
| 20260904135333 | 79 | 175 | 2.0 | 6.0 | 0.00 | 0.00 | 0.00 | 86 | 1016.2 |
| 20260904134308 | 79 | 181 | 1.0 | 7.0 | 0.00 | 0.00 | 0.00 | 87 | 1016.0 |
| 20260904134034 | 79 | 181 | 2.0 | 8.0 | 0.00 | 0.00 | 0.00 | 87 | 1016.0 |
| 20260904133256 | 79 | 177 | 2.0 | 8.0 | 0.00 | 0.00 | 0.00 | 87 | 1016.0 |
| 20260904132750 | 78 | 169 | 2.0 | 6.0 | 0.00 | 0.00 | 0.00 | 87 | 1015.9 |
| 20260904132244 | 78 | 175 | 3.0 | 8.0 | 0.00 | 0.00 | 0.00 | 87 | 1015.8 |
| 20260904131738 | 78 | 160 | 3.0 | 9.0 | 0.00 | 0.00 | 0.00 | 87 | 1015.8 |
| 20260904131232 | 78 | 195 | 1.0 | 6.0 | 0.00 | 0.00 | 0.00 | 87 | 1015.6 |
| 20260904130726 | 78 | 153 | 2.0 | 6.0 | 0.00 | 0.00 | 0.00 | 88 | 1015.5 |
| 20260904130452 | 78 | 155 | 2.0 | 6.0 | 0.00 | 0.00 | 0.00 | 87 | 1015.5 |
| 20260904125714 | 78 | 160 | 1.0 | 5.0 | 0.00 | 0.00 | 0.00 | 87 | 1015.4 |
| 20260904125439 | 78 | 161 | 1.0 | 7.0 | 0.00 | 0.00 | 0.00 | 88 | 1015.5 |
| 20260904124933 | 78 | 150 | 1.0 | 6.0 | 0.00 | 0.00 | 0.00 | 87 | 1015.5 |
| 20260904124157 | 78 | 147 | 1.0 | 4.0 | 0.00 | 0.00 | 0.00 | 87 | 1015.4 |
| 20260904123651 | 78 | 145 | 1.0 | 4.0 | 0.00 | 0.00 | 0.00 | 87 | 1015.3 |
| 20260904123145 | 78 | 134 | 1.0 | 5.0 | 0.00 | 0.00 | 0.00 | 87 | 1015.3 |
| 20260904122639 | 78 | 129 | 1.0 | 4.0 | 0.00 | 0.00 | 0.00 | 87 | 1015.2 |
| 20260904122136 | 78 | 179 | 1.0 | 6.0 | 0.00 | 0.00 | 0.00 | 87 | 1015.2 |
| 20260904121906 | 78 | 202 | 1.0 | 7.0 | 0.00 | 0.00 | 0.00 | 87 | 1015.2 |
| 20260904121136 | 78 | 153 | 1.0 | 7.0 | 0.00 | 0.00 | 0.00 | 87 | 1015.0 |
| 20260904120634 | 78 | 233 | 1.0 | 5.0 | 0.00 | 0.00 | 0.00 | 87 | 1015.0 |
| 20260904120132 | 78 | 171 | 2.0 | 5.0 | 0.00 | 0.00 | 0.00 | 87 | 1014.9 |
| 20260904115632 | 78 | 194 | 1.0 | 5.0 | 0.00 | 0.00 | 0.00 | 87 | 1015.0 |
| 20260904115132 | 78 | 169 | 1.0 | 5.0 | 0.00 | 0.00 | 0.00 | 87 | 1014.9 |
| 20260904114630 | 78 | 169 | 2.0 | 7.0 | 0.00 | 0.00 | 0.00 | 87 | 1014.9 |
| 20260904114130 | 78 | 142 | 2.0 | 8.0 | 0.00 | 0.00 | 0.00 | 87 | 1014.8 |
| 20260904113630 | 78 | 157 | 1.0 | 8.0 | 0.00 | 0.00 | 0.00 | 87 | 1014.8 |
| 20260904113129 | 78 | 178 | 2.0 | 5.0 | 0.00 | 0.00 | 0.00 | 87 | 1014.7 |
| 20260904112632 | 78 | 167 | 1.0 | 4.0 | 0.00 | 0.00 | 0.00 | 87 | 1014.7 |
| 20260904112131 | 78 | 167 | 1.0 | 6.0 | 0.00 | 0.00 | 0.00 | 86 | 1014.5 |
| 20260904111628 | 78 | 165 | 1.0 | 6.0 | 0.00 | 0.00 | 0.00 | 86 | 1014.5 |
| 20260904111128 | 78 | 157 | 1.0 | 6.0 | 0.00 | 0.00 | 0.00 | 86 | 1014.3 |
| 20260904110628 | 78 | 154 | 1.0 | 6.0 | 0.00 | 0.00 | 0.00 | 86 | 1014.4 |
| 20260904110128 | 78 | 197 | 1.0 | 6.0 | 0.00 | 0.00 | 0.00 | 85 | 1014.3 |
| 20260904105624 | 79 | 211 | 1.0 | 6.0 | 0.00 | 0.00 | 0.00 | 85 | 1014.4 |
| 20260904105123 | 79 | 194 | 1.0 | 5.0 | 0.00 | 0.00 | 0.00 | 85 | 1014.4 |
| 20260904104623 | 79 | 178 | 1.0 | 6.0 | 0.00 | 0.00 | 0.00 | 85 | 1014.4 |
| 20260904104123 | 79 | 166 | 1.0 | 6.0 | 0.00 | 0.00 | 0.00 | 85 | 1014.5 |
| 20260904103624 | 79 | 148 | 1.0 | 5.0 | 0.00 | 0.00 | 0.00 | 85 | 1014.4 |
| 20260904103124 | 79 | 196 | 2.0 | 5.0 | 0.00 | 0.00 | 0.00 | 85 | 1014.4 |
| 20260904102624 | 79 | 190 | 2.0 | 6.0 | 0.00 | 0.00 | 0.00 | 84 | 1014.4 |
| 20260904101624 | 79 | 191 | 2.0 | 6.0 | 0.00 | 0.00 | 0.00 | 84 | 1014.4 |
| 20260904101123 | 79 | 225 | 2.0 | 9.0 | 0.00 | 0.00 | 0.00 | 84 | 1014.4 |
| 20260904100623 | 79 | 267 | 2.0 | 10.0 | 0.00 | 0.00 | 0.00 | 84 | 1014.4 |
| 20260904100123 | 79 | 182 | 1.0 | 10.0 | 0.00 | 0.00 | 0.00 | 83 | 1014.3 |
| 20260904095854 | 79 | 222 | 1.0 | 5.0 | 0.00 | 0.00 | 0.00 | 84 | 1014.3 |
| 20260904095123 | 79 | 208 | 2.0 | 6.0 | 0.00 | 0.00 | 0.00 | 84 | 1014.3 |
| 20260904094623 | 79 | 355 | 1.0 | 6.0 | 0.00 | 0.00 | 0.00 | 84 | 1014.4 |
| 20260904094353 | 79 | 169 | 1.0 | 6.0 | 0.00 | 0.00 | 0.00 | 84 | 1014.3 |
| 20260904093622 | 79 | 227 | 2.0 | 10.0 | 0.00 | 0.00 | 0.00 | 84 | 1014.3 |
| 20260904093122 | 79 | 208 | 3.0 | 10.0 | 0.00 | 0.00 | 0.00 | 84 | 1014.3 |
| 20260904092621 | 79 | 205 | 3.0 | 7.0 | 0.00 | 0.00 | 0.00 | 84 | 1014.3 |
| 20260904092115 | 79 | 173 | 2.0 | 7.0 | 0.00 | 0.00 | 0.00 | 83 | 1014.3 |
| 20260904091609 | 79 | 176 | 3.0 | 7.0 | 0.00 | 0.00 | 0.00 | 83 | 1014.3 |
| 20260904091103 | 79 | 239 | 2.0 | 9.0 | 0.00 | 0.00 | 0.00 | 83 | 1014.3 |
| 20260904090556 | 79 | 194 | 2.0 | 9.0 | 0.00 | 0.00 | 0.00 | 83 | 1014.4 |
| 20260904090050 | 79 | 180 | 2.0 | 6.0 | 0.00 | 0.00 | 0.00 | 84 | 1014.3 |
| 20260904085545 | 79 | 239 | 2.0 | 6.0 | 0.00 | 0.00 | 0.00 | 83 | 1014.4 |
| 20260904085038 | 79 | 201 | 2.0 | 7.0 | 0.00 | 0.00 | 0.00 | 84 | 1014.3 |
| 20260904084533 | 79 | 165 | 2.0 | 7.0 | 0.00 | 0.00 | 0.00 | 83 | 1014.3 |
| 20260904084257 | 79 | 187 | 2.0 | 7.0 | 0.00 | 0.00 | 0.00 | 83 | 1014.5 |
| 20260904083014 | 79 | 123 | 3.0 | 8.0 | 0.00 | 0.00 | 0.00 | 83 | 1014.4 |
| 20260904082738 | 79 | 225 | 2.0 | 8.0 | 0.00 | 0.00 | 0.00 | 83 | 1014.4 |
| 20260904082231 | 79 | 269 | 1.0 | 7.0 | 0.00 | 0.00 | 0.00 | 83 | 1014.4 |
| 20260904081455 | 79 | 202 | 1.0 | 5.0 | 0.00 | 0.00 | 0.00 | 83 | 1014.5 |
| 20260904081219 | 79 | 169 | 1.0 | 8.0 | 0.00 | 0.00 | 0.00 | 83 | 1014.5 |
| 20260904080443 | 79 | 180 | 1.0 | 8.0 | 0.00 | 0.00 | 0.00 | 83 | 1014.5 |
| 20260904075937 | 79 | 192 | 1.0 | 7.0 | 0.00 | 0.00 | 0.00 | 83 | 1014.6 |
| 20260904075431 | 79 | 155 | 2.0 | 7.0 | 0.00 | 0.00 | 0.00 | 83 | 1014.5 |
| 20260904074925 | 79 | 150 | 2.0 | 7.0 | 0.00 | 0.00 | 0.00 | 83 | 1014.6 |
| 20260904074650 | 80 | 218 | 1.0 | 6.0 | 0.00 | 0.00 | 0.00 | 82 | 1014.7 |
| 20260904073914 | 80 | 157 | 1.0 | 6.0 | 0.00 | 0.00 | 0.00 | 82 | 1014.7 |
| 20260904073407 | 80 | 149 | 1.0 | 5.0 | 0.00 | 0.00 | 0.00 | 82 | 1014.7 |
| 20260904072901 | 80 | 147 | 1.0 | 7.0 | 0.00 | 0.00 | 0.00 | 82 | 1014.9 |
| 20260904072626 | 80 | 165 | 2.0 | 7.0 | 0.00 | 0.00 | 0.00 | 82 | 1014.9 |
| 20260904071848 | 80 | 166 | 1.0 | 6.0 | 0.00 | 0.00 | 0.00 | 82 | 1015.0 |
| 20260904071343 | 80 | 165 | 2.0 | 8.0 | 0.00 | 0.00 | 0.00 | 82 | 1015.0 |
| 20260904070836 | 80 | 158 | 2.0 | 8.0 | 0.00 | 0.00 | 0.00 | 82 | 1015.2 |
| 20260904070331 | 80 | 148 | 1.0 | 7.0 | 0.00 | 0.00 | 0.00 | 82 | 1015.2 |
| 20260904065825 | 80 | 161 | 1.0 | 6.0 | 0.00 | 0.00 | 0.00 | 81 | 1015.2 |
| 20260904065319 | 80 | 159 | 2.0 | 8.0 | 0.00 | 0.00 | 0.00 | 81 | 1015.0 |
| 20260904065045 | 80 | 146 | 2.0 | 8.0 | 0.00 | 0.00 | 0.00 | 81 | 1014.9 |
| 20260904064307 | 80 | 184 | 2.0 | 8.0 | 0.00 | 0.00 | 0.00 | 81 | 1015.0 |
| 20260904064032 | 80 | 189 | 2.0 | 8.0 | 0.00 | 0.00 | 0.00 | 81 | 1015.2 |
| 20260904063255 | 80 | 240 | 2.0 | 8.0 | 0.00 | 0.00 | 0.00 | 81 | 1015.0 |
| 20260904062749 | 80 | 265 | 1.0 | 8.0 | 0.00 | 0.00 | 0.00 | 81 | 1015.0 |
| 20260904062242 | 80 | 163 | 2.0 | 8.0 | 0.00 | 0.00 | 0.00 | 80 | 1015.2 |
| 20260904061737 | 80 | 144 | 3.0 | 8.0 | 0.00 | 0.00 | 0.00 | 80 | 1015.2 |
| 20260904061233 | 80 | 147 | 3.0 | 12.0 | 0.00 | 0.00 | 0.00 | 80 | 1015.2 |
| 20260904060726 | 80 | 157 | 4.0 | 12.0 | 0.00 | 0.00 | 0.00 | 80 | 1015.0 |
| 20260904060452 | 80 | 122 | 3.0 | 12.0 | 0.00 | 0.00 | 0.00 | 80 | 1015.0 |
| 20260904055715 | 80 | 161 | 2.0 | 11.0 | 0.00 | 0.00 | 0.00 | 80 | 1015.3 |
| 20260904055437 | 81 | 184 | 3.0 | 10.0 | 0.00 | 0.00 | 0.00 | 79 | 1015.2 |
| 20260904054701 | 81 | 254 | 4.0 | 11.0 | 0.00 | 0.00 | 0.00 | 79 | 1015.0 |
| 20260904054155 | 81 | 190 | 4.0 | 11.0 | 0.00 | 0.00 | 0.00 | 79 | 1015.0 |
| 20260904053649 | 81 | 149 | 3.0 | 10.0 | 0.00 | 0.00 | 0.00 | 78 | 1015.0 |
| 20260904053143 | 81 | 150 | 2.0 | 8.0 | 0.00 | 0.00 | 0.00 | 78 | 1015.2 |
| 20260904052637 | 81 | 186 | 3.0 | 9.0 | 0.00 | 0.00 | 0.00 | 78 | 1015.3 |
| 20260904052131 | 81 | 178 | 4.0 | 9.0 | 0.00 | 0.00 | 0.00 | 78 | 1015.2 |
| 20260904051855 | 81 | 174 | 4.0 | 15.0 | 0.00 | 0.00 | 0.00 | 77 | 1015.2 |
| 20260904051119 | 81 | 315 | 4.0 | 15.0 | 0.00 | 0.00 | 0.00 | 77 | 1015.0 |
| 20260904050613 | 81 | 175 | 3.0 | 11.0 | 0.00 | 0.00 | 0.00 | 77 | 1015.2 |
| 20260904050107 | 82 | 173 | 4.0 | 11.0 | 0.00 | 0.00 | 0.00 | 77 | 1015.2 |
| 20260904045600 | 82 | 147 | 4.0 | 10.0 | 0.00 | 0.00 | 0.00 | 77 | 1015.2 |
| 20260904045054 | 82 | 169 | 5.0 | 12.0 | 0.00 | 0.00 | 0.00 | 76 | 1014.9 |
| 20260904044548 | 82 | 157 | 4.0 | 12.0 | 0.00 | 0.00 | 0.00 | 75 | 1015.0 |
| 20260904044041 | 82 | 107 | 3.0 | 9.0 | 0.00 | 0.00 | 0.00 | 75 | 1014.9 |
| 20260904043535 | 82 | 157 | 3.0 | 11.0 | 0.00 | 0.00 | 0.00 | 74 | 1014.8 |
| 20260904043030 | 83 | 165 | 4.0 | 11.0 | 0.00 | 0.00 | 0.00 | 73 | 1014.6 |
| 20260904042524 | 83 | 159 | 4.0 | 14.0 | 0.00 | 0.00 | 0.00 | 71 | 1014.5 |
| 20260904042018 | 83 | 127 | 3.0 | 11.0 | 0.00 | 0.00 | 0.00 | 70 | 1014.4 |
| 20260904041511 | 84 | 140 | 3.0 | 11.0 | 0.00 | 0.00 | 0.00 | 69 | 1014.5 |
| 20260904041004 | 84 | 86 | 4.0 | 9.0 | 0.00 | 0.00 | 0.00 | 68 | 1014.4 |
| 20260904040457 | 84 | 123 | 4.0 | 9.0 | 0.00 | 0.00 | 0.00 | 67 | 1014.5 |
| 20260904035952 | 84 | 224 | 3.0 | 13.0 | 0.00 | 0.00 | 0.00 | 65 | 1014.6 |
| 20260904035446 | 85 | 178 | 3.0 | 13.0 | 0.00 | 0.00 | 0.00 | 65 | 1014.7 |
| 20260904034940 | 85 | 125 | 4.0 | 11.0 | 0.00 | 0.00 | 0.00 | 64 | 1014.6 |
| 20260904034434 | 85 | 146 | 4.0 | 11.0 | 0.00 | 0.00 | 0.00 | 64 | 1014.7 |
| 20260904034159 | 85 | 155 | 4.0 | 11.0 | 0.00 | 0.00 | 0.00 | 64 | 1014.5 |
| 20260904033422 | 85 | 163 | 4.0 | 11.0 | 0.00 | 0.00 | 0.00 | 64 | 1014.6 |
| 20260904032915 | 85 | 194 | 5.0 | 13.0 | 0.00 | 0.00 | 0.00 | 64 | 1014.5 |
| 20260904032409 | 85 | 156 | 5.0 | 13.0 | 0.00 | 0.00 | 0.00 | 63 | 1014.5 |
| 20260904031358 | 86 | 121 | 3.0 | 9.0 | 0.00 | 0.00 | 0.00 | 63 | 1014.3 |
| 20260904030852 | 86 | 126 | 2.0 | 8.0 | 0.00 | 0.00 | 0.00 | 63 | 1014.1 |
| 20260904030347 | 86 | 142 | 2.0 | 6.0 | 0.00 | 0.00 | 0.00 | 63 | 1014.2 |
| 20260904030110 | 86 | 161 | 2.0 | 8.0 | 0.00 | 0.00 | 0.00 | 63 | 1014.0 |
| 20260904025604 | 86 | 138 | 2.0 | 8.0 | 0.00 | 0.00 | 0.00 | 63 | 1013.8 |
| 20260904025058 | 86 | 126 | 2.0 | 8.0 | 0.00 | 0.00 | 0.00 | 62 | 1013.8 |
| 20260904024322 | 86 | 112 | 3.0 | 8.0 | 0.00 | 0.00 | 0.00 | 62 | 1013.7 |
| 20260904023816 | 86 | 126 | 3.0 | 8.0 | 0.00 | 0.00 | 0.00 | 62 | 1013.7 |
| 20260904023310 | 86 | 126 | 3.0 | 8.0 | 0.00 | 0.00 | 0.00 | 62 | 1013.7 |
| 20260904022805 | 86 | 138 | 3.0 | 9.0 | 0.00 | 0.00 | 0.00 | 61 | 1013.5 |
| 20260904022258 | 86 | 119 | 4.0 | 11.0 | 0.00 | 0.00 | 0.00 | 61 | 1013.3 |
| 20260904021751 | 86 | 126 | 4.0 | 11.0 | 0.00 | 0.00 | 0.00 | 61 | 1013.2 |
| 20260904021246 | 86 | 123 | 3.0 | 10.0 | 0.00 | 0.00 | 0.00 | 61 | 1013.2 |
| 20260904021010 | 87 | 110 | 3.0 | 9.0 | 0.00 | 0.00 | 0.00 | 61 | 1013.1 |
| 20260904020505 | 87 | 81 | 3.0 | 10.0 | 0.00 | 0.00 | 0.00 | 61 | 1013.0 |
| 20260904015727 | 87 | 137 | 3.0 | 10.0 | 0.00 | 0.00 | 0.00 | 61 | 1013.0 |
| 20260904015222 | 87 | 117 | 5.0 | 14.0 | 0.00 | 0.00 | 0.00 | 61 | 1012.8 |
| 20260904014722 | 87 | 139 | 6.0 | 14.0 | 0.00 | 0.00 | 0.00 | 60 | 1012.8 |
| 20260904014452 | 88 | 118 | 5.0 | 14.0 | 0.00 | 0.00 | 0.00 | 60 | 1012.8 |
| 20260904013724 | 88 | 102 | 4.0 | 13.0 | 0.00 | 0.00 | 0.00 | 60 | 1012.8 |
| 20260904013222 | 88 | 138 | 4.0 | 13.0 | 0.00 | 0.00 | 0.00 | 60 | 1012.8 |
| 20260904012722 | 89 | 102 | 5.0 | 12.0 | 0.00 | 0.00 | 0.00 | 59 | 1012.6 |
| 20260904012222 | 89 | 101 | 6.0 | 16.0 | 0.00 | 0.00 | 0.00 | 58 | 1012.6 |
| 20260904011722 | 90 | 149 | 6.0 | 16.0 | 0.00 | 0.00 | 0.00 | 58 | 1012.6 |